Litchfield, IL

5:18 AM CST on February 22, 2017 (GMT -0600)
Litchfield

Weather History for K3LF - April, 2013

Change the Weather History Date:

Monday, April 29, 2013

  Actual Average (KALN) Record (KALN)
Temperature  
Mean Temperature 58 °F -  
Max Temperature 72 °F 68 °F 84 °F (2007)
Min Temperature 44 °F 50 °F 32 °F (2008)
Degree Days  
Heating Degree Days 7    
Growing Degree Days 8 (Base 50)    
Moisture  
Dew Point 54 °F    
Average Humidity 84    
Maximum Humidity 100    
Minimum Humidity 62    
Precipitation  
Precipitation 0.00 in - - ()
Sea Level Pressure  
Sea Level Pressure 29.89 in    
Wind  
Wind Speed 9 mph (SSE)    
Max Wind Speed 21 mph    
Max Gust Speed 28 mph    
Visibility 8 miles    
Events      
Averages and records for this station are not official NWS values.
T = Trace of Precipitation, MM = Missing Value Source: NWS Daily Summary

Daily Weather History Graph

Daily Weather History Graph

Search for Another Location

Airport or City:

Trip Planner

Search our weather history database for the weather conditions in past years. The results will help you decide how hot, cold, wet, or windy it might be!

Date:

Astronomy

Apr. 29, 2013 Rise Set
Actual Time 6:02 AM CDT 7:50 PM CDT
Civil Twilight 5:33 AM CDT 8:18 PM CDT
Nautical Twilight 4:58 AM CDT 8:53 PM CDT
Astronomical Twilight 4:21 AM CDT 9:31 PM CDT
Moon No Moon Rise 9:23 AM CDT (4/29)
Length of Visible Light 14h 45m
Length of Day
13h 47m
Waning Gibbous, 80% of the Moon is Illuminated
Apr 29
Waning Gibbous
May 2
Last Quarter
May 9
New
May 17
First Quarter
May 24
Full

Hourly Weather History & Observations

Time (CDT) Temp. Windchill Dew Point Humidity Pressure Visibility Wind Dir Wind Speed Gust Speed Precip Events Conditions
12:15 AM 46.0 °F 43.9 °F 45.7 °F 99% 29.94 in 3.0 mi South 4.6 mph - N/A   Clear
12:35 AM 46.0 °F 44.8 °F 45.7 °F 99% 29.94 in 3.0 mi South 3.5 mph - N/A   Clear
12:55 AM 45.5 °F 44.2 °F 45.3 °F 99% 29.93 in 2.5 mi South 3.5 mph - N/A   Clear
1:15 AM 45.0 °F 42.6 °F 44.8 °F 99% 29.93 in 2.5 mi South 4.6 mph - N/A   Clear
1:35 AM 45.7 °F 44.4 °F 45.5 °F 99% 29.93 in 3.0 mi South 3.5 mph - N/A   Clear
1:55 AM 45.5 °F 42.5 °F 45.5 °F 100% 29.93 in 2.5 mi SSE 5.8 mph - N/A   Clear
2:15 AM 45.9 °F 44.6 °F 45.7 °F 99% 29.92 in 3.0 mi South 3.5 mph - N/A   Clear
2:35 AM 46.0 °F 44.8 °F 45.9 °F 99% 29.92 in 4.0 mi South 3.5 mph - N/A   Clear
2:55 AM 45.5 °F 43.2 °F 45.3 °F 99% 29.92 in 3.0 mi South 4.6 mph - N/A   Clear
3:15 AM 44.6 °F 41.4 °F 44.6 °F 100% 29.92 in 2.0 mi South 5.8 mph - N/A   Clear
3:35 AM 45.0 °F 41.8 °F 44.8 °F 99% 29.92 in 3.0 mi SSE 5.8 mph - N/A   Clear
3:55 AM 44.8 °F 42.4 °F 44.6 °F 99% 29.92 in 4.0 mi SE 4.6 mph - N/A   Clear
4:15 AM 45.1 °F 43.7 °F 45.0 °F 99% 29.93 in 4.0 mi SSE 3.5 mph - N/A   Clear
4:35 AM 44.6 °F 42.2 °F 44.6 °F 100% 29.93 in 2.5 mi SSE 4.6 mph - N/A   Clear
4:55 AM 45.0 °F 43.5 °F 44.8 °F 99% 29.93 in 3.0 mi SSE 3.5 mph - N/A   Clear
5:15 AM 45.0 °F 43.5 °F 45.0 °F 100% 29.93 in 2.5 mi SSE 3.5 mph - N/A   Clear
5:55 AM 45.3 °F 41.6 °F 45.3 °F 100% 29.93 in 2.5 mi SE 6.9 mph - N/A   Clear
6:15 AM 45.5 °F 42.5 °F 45.5 °F 100% 29.93 in 3.0 mi SE 5.8 mph - N/A   Clear
6:35 AM 46.0 °F 42.5 °F 45.9 °F 99% 29.94 in 2.5 mi SE 6.9 mph - N/A   Clear
6:55 AM 46.9 °F - 46.8 °F 99% 29.94 in 2.0 mi SE 6.9 mph - N/A   Clear
7:15 AM 48.2 °F - 47.7 °F 98% 29.95 in 2.5 mi SE 6.9 mph - N/A   Clear
7:35 AM 49.3 °F - 48.9 °F 99% 29.95 in 2.5 mi SSE 8.1 mph - N/A   Clear
7:55 AM 50.5 °F - 50.0 °F 98% 29.95 in 2.5 mi SSE 6.9 mph - N/A   Clear
8:15 AM 52.0 °F - 51.3 °F 97% 29.95 in 4.0 mi SSE 8.1 mph - N/A   Clear
8:35 AM 54.0 °F - 52.3 °F 94% 29.95 in 5.0 mi SSE 9.2 mph - N/A   Clear
8:55 AM 55.9 °F - 53.6 °F 92% 29.95 in 7.0 mi South 9.2 mph - N/A   Clear
9:15 AM 57.0 °F - 54.0 °F 89% 29.94 in 10.0 mi South 12.7 mph - N/A   Clear
9:35 AM 57.2 °F - 54.0 °F 89% 29.94 in 10.0 mi South 15.0 mph - N/A   Clear
9:55 AM 58.6 °F - 55.0 °F 88% 29.94 in 10.0 mi South 12.7 mph - N/A   Clear
10:15 AM 60.1 °F - 55.6 °F 85% 29.93 in 10.0 mi South 11.5 mph - N/A   Clear
10:35 AM 61.2 °F - 56.1 °F 83% 29.93 in 10.0 mi SSE 11.5 mph - N/A   Clear
10:55 AM 62.8 °F - 57.4 °F 82% 29.93 in 10.0 mi South 12.7 mph - N/A   Clear
11:15 AM 63.5 °F - 57.9 °F 82% 29.93 in 10.0 mi SSE 12.7 mph - N/A   Clear
11:35 AM 64.9 °F - 58.5 °F 79% 29.93 in 10.0 mi SSE 15.0 mph 18.4 mph N/A   Clear
11:55 AM 65.3 °F - 57.9 °F 77% 29.92 in 10.0 mi SSE 12.7 mph - N/A   Clear
12:15 PM 66.2 °F - 58.6 °F 77% 29.91 in 10.0 mi South 18.4 mph - N/A   Clear
12:35 PM 66.9 °F - 58.8 °F 75% 29.91 in 10.0 mi SSE 13.8 mph 17.3 mph N/A   Clear
12:55 PM 68.0 °F - 59.4 °F 74% 29.90 in 10.0 mi South 17.3 mph 21.9 mph N/A   Clear
1:15 PM 68.7 °F - 60.3 °F 74% 29.90 in 10.0 mi South 17.3 mph 21.9 mph N/A   Clear
1:35 PM 69.4 °F - 61.2 °F 75% 29.89 in 10.0 mi South 13.8 mph - N/A   Clear
1:55 PM 70.0 °F - 60.8 °F 73% 29.88 in 10.0 mi South 16.1 mph 20.7 mph N/A   Clear
2:15 PM 70.3 °F - 60.1 °F 70% 29.87 in 10.0 mi SSE 15.0 mph 23.0 mph N/A   Clear
2:35 PM 70.7 °F - 59.0 °F 66% 29.87 in 10.0 mi South 19.6 mph - N/A   Clear
2:55 PM 71.6 °F - 60.3 °F 67% 29.86 in 10.0 mi SSE 12.7 mph - N/A   Clear
3:15 PM 71.2 °F - 58.8 °F 65% 29.85 in 10.0 mi SSE 17.3 mph 21.9 mph N/A   Clear
3:35 PM 71.6 °F - 58.6 °F 64% 29.85 in 10.0 mi South 18.4 mph 24.2 mph N/A   Clear
3:55 PM 72.0 °F - 60.4 °F 67% 29.83 in 10.0 mi SSE 18.4 mph - N/A   Clear
4:15 PM 71.6 °F - 59.2 °F 65% 29.83 in 10.0 mi SSE 19.6 mph 27.6 mph N/A   Clear
4:35 PM 71.8 °F - 59.9 °F 66% 29.83 in 10.0 mi South 18.4 mph - N/A   Clear
4:55 PM 71.6 °F - 59.2 °F 65% 29.82 in 10.0 mi SSE 20.7 mph 25.3 mph N/A   Clear
5:15 PM 71.6 °F - 57.9 °F 62% 29.82 in 10.0 mi South 17.3 mph - N/A   Clear
5:35 PM 71.2 °F - 58.5 °F 64% 29.82 in 10.0 mi South 18.4 mph 25.3 mph N/A   Clear
5:55 PM 71.1 °F - 59.4 °F 66% 29.81 in 10.0 mi South 18.4 mph - N/A   Clear
6:15 PM 70.7 °F - 59.5 °F 68% 29.81 in 10.0 mi SSE 16.1 mph 25.3 mph N/A   Clear
6:35 PM 70.2 °F - 59.2 °F 68% 29.81 in 10.0 mi South 20.7 mph - N/A   Clear
6:55 PM 69.3 °F - 59.4 °F 71% 29.81 in 10.0 mi SSE 17.3 mph 21.9 mph N/A   Clear
7:15 PM 68.2 °F - 58.6 °F 71% 29.81 in 10.0 mi SSE 18.4 mph - N/A   Clear
7:35 PM 67.5 °F - 57.4 °F 70% 29.81 in 10.0 mi SSE 16.1 mph - N/A   Clear
7:55 PM 66.6 °F - 57.2 °F 72% 29.82 in 10.0 mi SSE 16.1 mph - N/A   Clear
8:15 PM 66.2 °F - 57.0 °F 72% 29.82 in 10.0 mi SSE 13.8 mph - N/A   Clear
8:35 PM 65.3 °F - 56.8 °F 74% 29.82 in 10.0 mi SSE 13.8 mph - N/A   Clear
8:55 PM 64.9 °F - 56.7 °F 74% 29.83 in 10.0 mi SSE 15.0 mph - N/A   Clear
9:15 PM 64.6 °F - 56.7 °F 75% 29.83 in 10.0 mi SSE 15.0 mph - N/A   Clear
9:35 PM 64.4 °F - 56.8 °F 76% 29.83 in 10.0 mi SSE 17.3 mph 21.9 mph N/A   Clear
9:55 PM 63.5 °F - 57.2 °F 80% 29.83 in 10.0 mi SSE 16.1 mph - N/A   Clear
10:15 PM 63.1 °F - 57.2 °F 81% 29.83 in 10.0 mi SSE 16.1 mph 23.0 mph N/A   Clear
10:35 PM 62.8 °F - 57.2 °F 82% 29.83 in 10.0 mi SSE 17.3 mph - N/A   Clear
10:55 PM 62.4 °F - 57.4 °F 84% 29.82 in 10.0 mi South 17.3 mph - N/A   Clear
11:15 PM 62.1 °F - 57.4 °F 85% 29.83 in 10.0 mi South 15.0 mph - N/A   Clear
11:35 PM 61.7 °F - 57.4 °F 86% 29.83 in 10.0 mi South 13.8 mph - N/A   Clear
11:55 PM 61.2 °F - 57.4 °F 87% 29.83 in 10.0 mi South 12.7 mph - N/A   Clear